Home   Weather   Yazd   Past weeks

Flag for Iran Past Weather in Yazd, Iran — Yesterday and Last 2 Weeks

Now
61 °F

Broken clouds.


Feels Like: 61 °F
Forecast: 60 / 85 °F
Wind: 9 mph from Northwest

Location: Yazd Airport

Current Time: Apr 28, 2017 at 9:18:55 am

Latest Report: Apr 28, 2017 at 8:30 am


Visibility: 5 mi

Pressure: 30.27 "Hg (26.21 "Hg at 1218m altitude)

Humidity: 72%

Dew Point: 52 °F

Location of YazdLocation

Past Weather in Yazd — Graph

°F

Yazd Temperature Yesterday

Maximum temperature yesterday: 81 °F (at 5:00 pm)
Minimum temperature yesterday: 61 °F (at 5:30 am)
Average temperature yesterday: 70 °F

High & Low Weather Summary for the Past Weeks

 TemperatureHumidityPressure
High95 °F (Apr 14, 5:00 pm)77% (Apr 28, 8:00 am)30.27 "Hg (Apr 28, 8:00 am)
Low57 °F (Apr 22, 6:00 am)3% (Apr 24, 5:30 pm)29.89 "Hg (Apr 24, 5:00 pm)
Average77 °F21%30.08 "Hg
* Reported Apr 13 7:30 am — Apr 28 8:00 am, Yazd, Weather by CustomWeather, © 2017

Note: Actual official high and low records may vary slightly from our data, if they occured in-between our weather recording intervals... More about our weather records

Advertising

Yazd Weather History for the Previous 24 Hours

Scroll right to see more
 ConditionsComfort  
Time TempWeatherWind HumidityBarometerVisibility
8:00 am
Fri, Apr 28
61 °FClear.5 mph77%30.27 "Hg5 mi
7:30 am61 °FScattered clouds.5 mph72%30.27 "Hg5 mi
7:00 am61 °FPassing clouds.7 mph59%30.27 "Hg5 mi
6:30 am61 °FPassing clouds.2 mph55%30.24 "Hg5 mi
5:30 am61 °FPassing clouds.2 mph55%30.24 "Hg4 mi
4:30 am61 °FPassing clouds.No wind55%30.24 "Hg4 mi
3:30 am63 °FClear.12 mph52%30.24 "Hg5 mi
2:30 am63 °FClear.9 mph52%30.24 "Hg5 mi
1:30 am64 °FPassing clouds.14 mph52%30.24 "Hg4 mi
1:00 am64 °FPassing clouds.12 mph49%30.24 "Hg4 mi
12:30 am64 °FPassing clouds.14 mph52%30.24 "Hg4 mi
12:00 am64 °FSandstorm.14 mph56%30.24 "Hg2 mi
11:30 pm
Thu, Apr 27
70 °FPassing clouds.5 mph46%30.24 "Hg4 mi
11:20 pm70 °FPartly cloudy.7 mph43%30.18 "Hg4 mi
10:00 pm75 °FPartly cloudy.5 mph29%30.24 "Hg4 mi
9:30 pm75 °FLight rain. Partly cloudy.2 mph27%30.21 "Hg4 mi
9:00 pm75 °FPartly cloudy.2 mph27%30.21 "Hg4 mi
8:30 pm75 °FPartly cloudy.7 mph27%30.18 "Hg4 mi
8:00 pm77 °FPartly cloudy.9 mph26%30.18 "Hg3 mi
7:30 pm77 °FThunderstorms. Broken clouds.12 mph24%30.15 "Hg3 mi
7:00 pm79 °FScattered clouds.7 mph23%30.12 "Hg5 mi
6:30 pm79 °FScattered clouds.7 mph24%30.12 "Hg5 mi
6:00 pm79 °FClear.7 mph24%30.12 "Hg5 mi
5:30 pm79 °FClear.7 mph24%30.12 "Hg5 mi
5:00 pm81 °FClear.5 mph23%30.12 "Hg5 mi
4:30 pm79 °FScattered clouds.7 mph24%30.15 "Hg5 mi
4:00 pm79 °FPassing clouds.9 mph26%30.15 "Hg5 mi
3:30 pm79 °FPassing clouds.7 mph24%30.15 "Hg5 mi
2:30 pm77 °FPassing clouds.9 mph28%30.18 "Hg4 mi
1:30 pm75 °FPassing clouds.9 mph29%30.21 "Hg4 mi
12:30 pm73 °FPassing clouds.9 mph31%30.24 "Hg5 mi
11:30 am70 °FClear.7 mph35%30.24 "Hg5 mi
10:30 am68 °FClear.12 mph40%30.27 "Hg5 mi
10:00 am66 °FSunny.9 mph43%30.27 "Hg10 mi
9:30 am64 °FSunny.12 mph46%30.27 "Hg10 mi
9:00 am63 °FSunny.14 mph45%30.24 "Hg10 mi
Weather by CustomWeather, © 2017

See weather overviewHow to use our weather pages